Regional Weather Roundup
Issued by NWS

Home | Current Version | Previous Version | Graphics & Text | Print | Product List | Glossary On
Versions: 1 2 3 4 5 6 7 8 9 10 11 12 13 14 15 16 17 18 19 20 21 22 23 24 25 26 27 28 29 30 31 32 33 34 35 36 37 38 39 40 41 42 43 44 45 46
000
ASUS45 KBOU 250310
RWRCO

WEATHER ROUNDUP FOR COLORADO
NATIONAL WEATHER SERVICE PUEBLO CO
900 PM MDT TUE APR 24 2018

NOTE: "FAIR" INDICATES FEW OR NO CLOUDS BELOW 12000 FEET WITH NO
SIGNIFICANT WEATHER AND/OR OBSTRUCTIONS TO VISIBILITY.

COZ001>005-013-030-031-250400-
...NORTHWEST COLORADO...

CITY           SKY/WX    TMP DP  RH WIND       PRES   REMARKS
CRAIG          CLEAR     38  22  52 SW6G17    30.36R
HAYDEN         CLEAR     36  22  56 W9        30.35R
MEEKER         CLEAR     40  21  46 N8        30.36R
RABBIT EARS PA NOT AVBL
STEAMBOAT SPGS FAIR      38  22  52 SE5       30.33R
WALDEN         FAIR      27  16  63 N3        30.39R
$$

COZ006>008-011-250400-
...WEST CENTRAL VALLEYS...

CITY           SKY/WX    TMP DP  RH WIND       PRES   REMARKS
GRAND JUNCTION CLEAR     55  18  23 N15       30.25R
MONTROSE       CLEAR     52  11  19 NW9       30.27R
EAGLE          CLEAR     46  15  28 SW8       30.31R
RIFLE            N/A     50  22  33 N13G22    30.30R
DELTA          NOT AVBL
NUCLA          NOT AVBL
$$

COZ017>023-064>068-250400-
...SOUTHWEST COLORADO...

CITY           SKY/WX    TMP DP  RH WIND       PRES   REMARKS
DURANGO        CLEAR     59  26  28 VRB5      30.13R
CORTEZ         MOCLDY    61  22  22 N9G20     30.14R
PAGOSA SPRINGS FAIR      54  22  28 CALM      30.20R
TELLURIDE      MOCLDY    43  19  38 N3        30.35R
WOLF CREEK PAS MOCLDY    34  21  60 W10G17    30.43R WCI  26
$$

COZ009-010-012-014-032>034-037-058>063-250400-
...CENTRAL COLORADO...

CITY           SKY/WX    TMP DP  RH WIND       PRES   REMARKS
ASPEN          PTCLDY    41  16  36 W6        30.29R
BUENA VISTA    FLURRIES  32  30  93 E6        30.38R WCI  26
COPPER MTN     NOT AVBL
BERTHOUD PASS  CLOUDY    18   7  62 NW16G25   30.36S WCI   3
COTTONWOOD PAS LGT SNOW  32  32 100 CALM      30.37R VSB 3/4
GUNNISON       PTCLDY    46  19  34 N5        30.27R
KREMMLING      PTCLDY    41  28  60 NW13G20   30.36R
LEADVILLE      MOCLDY    29  24  82 VRB7      30.33R WCI  22
MONARCH PASS   FOG       23  21  93 NW5       30.48R VSB 1/2 WCI  17
SALIDA         CLOUDY    32  30  93 E8        30.45R WCI  25
SUNLIGHT       CLEAR     27  14  59 W8G18     30.42R WCI  18
WILKERSON PASS MOCLDY   N/A N/A N/A NE6       30.40R
$$

COZ069>075-250400-
...SAN LUIS VALLEY/SANGRE DE CRISTO MOUNTAINS...

CITY           SKY/WX    TMP DP  RH WIND       PRES   REMARKS
ALAMOSA        MOCLDY    39  28  64 SE9       30.20R
DEL NORTE      FAIR      48  32  54 NE5       30.22R
LA VETA PASS   LGT SNOW  23  21  93 MISG      30.45S VSB 3/4
SAGUACHE       NOT AVBL
$$

COZ035-036-038>040-250400-
...NORTHERN COLORADO FRONT RANGE...

CITY           SKY/WX    TMP DP  RH WIND       PRES   REMARKS
DENVER INTL AP CLOUDY    38  31  76 NW8       30.43R
DMNS CITY PARK NOT AVBL
AURORA         NOT AVBL
FRONT RANGE AP CLOUDY    39  36  87 NW5       30.43R
ERIE MUNI ARPT CLOUDY    38  34  86 SW3       30.49R
BOULDER MUN AP CLOUDY    36  34  93 S3        30.43R
CENTENNIAL     LGT SNOW  33  33 100 NW7       30.42R FOG     WCI  27
BROOMFIELD     MOCLDY    36  34  93 W6        30.43R
LOVELAND       CLOUDY    39  28  64 SE7       30.44R
LONGMONT       CLOUDY    40  35  83 S3        30.45R
$$

COZ041-046-047-076>085-087-088-250400-
...PIKES PEAK/PALMER DIVIDE AND SOUTHERN FOOTHILLS...

CITY           SKY/WX    TMP DP  RH WIND       PRES   REMARKS
COLO. SPRINGS  LGT SNOW  33  32  96 NW8       30.42R VSB 1   WCI  26
A. F. ACADEMY  NOT AVBL
SCHRIEVER AFB  NOT AVBL
CHEYENNE MTN   NOT AVBL
ELLICOTT       SNOW     N/A N/A N/A NW3       30.40R
FALCON         LGT SNOW  31  30  96 N5        30.42R WCI  26
FORT CARSON    NOT AVBL
LIMON          CLOUDY    35  31  85 N7        30.40R WCI  29
MONUMENT HILL  LGT SNOW  30  28  93 NW9       30.42R WCI  22
CANON CITY     DRIZZLE   37  36  93 E6        30.42R
WALSENBURG     CLOUDY    34  34 100 CALM      30.44R
TRINIDAD       CLOUDY    35  32  88 NE10      30.42R WCI  27
$$

COZ042>045-048>051-090-091-250400-
...NORTHEAST COLORADO...

CITY           SKY/WX    TMP DP  RH WIND       PRES   REMARKS
GREELEY ARPT   CLOUDY    39  27  62 E3        30.45R
AKRON          CLOUDY    36  30  79 N7        30.41R
BURLINGTON     CLOUDY    38  33  82 N10       30.40R
WRAY           CLOUDY    39  32  75 N13       30.41R
YUMA           NOT AVBL
STERLING       NOT AVBL
HOLYOKE        CLOUDY    41  32  70 N13       30.41R
FORT MORGAN    FAIR      36  26  66 N3        30.43R
$$

COZ086-089-092>099-250400-
...SOUTHEAST COLORADO...

CITY           SKY/WX    TMP DP  RH WIND       PRES   REMARKS
PUEBLO         CLOUDY    37  35  92 W3        30.44R
LA JUNTA       MIX PCPN  37  35  92 NW5       30.42S
LAMAR          LGT RAIN  38  34  85 N5        30.39R
SPRINGFIELD      N/A     37  34  89 N23G33    30.36R
$$





USA.gov is the U.S. government's official web portal to all federal, state and local government web resources and services.